This demonstration page uses our WeatherBlox Daily Observations layout. Learn more.

Left ArrowRight Arrow

Hourly Observations for February 3, 2022

Temp ( °F °C ) Dew Point ( °F °C ) Humidity (%) Winds ( mph kmh ) Pressure ( in mb ) Visibility ( mi km ) Precip ( " mm )
2:55 am 02:55 Partly Cloudy 5 -15.1 -9 -23 51 51 NE 8 13 30.71 1040 10 16 0.00 0.00
3:15 am 03:15 Clear 4 -15.5 -9 -22.9 53 53 NNE 8 13 30.72 1040 10 16 0.00 0.00
3:35 am 03:35 Clear 3 -16 -9 -23 55 55 NNE 7 11 30.71 1040 10 16 0.00 0.00
3:55 am 03:55 Clear 2 -16.6 -10 -23.1 57 57 N 6 9 30.72 1040 10 16 0.00 0.00
4:15 am 04:15 Clear 1 -17 -10 -23.1 59 59 N 7 11 30.72 1040 10 16 0.00 0.00
4:35 am 04:35 Clear 1 -17.1 -9 -23 60 60 NNE 7 11 30.71 1040 10 16 0.00 0.00
4:55 am 04:55 Clear 1 -17.5 -10 -23.1 62 62 N 7 11 30.73 1041 10 16 0.00 0.00
5:15 am 05:15 Clear 1 -17.5 -9 -23 62 62 N 7 11 30.72 1040 10 16 0.00 0.00
5:35 am 05:35 Clear 0 -17.8 -10 -23.1 63 63 N 6 9 30.72 1040 10 16 0.00 0.00
5:55 am 05:55 Clear 0 -18 -10 -23.1 65 65 N 6 9 30.73 1041 10 16 0.00 0.00
6:15 am 06:15 Clear -1 -18.5 -10 -23.4 66 66 N 6 9 30.74 1041 10 16 0.00 0.00
6:35 am 06:35 Clear -1 -18.5 -10 -23.2 67 67 N 7 11 30.74 1041 10 16 0.00 0.00
6:55 am 06:55 Partly Cloudy -2 -18.9 -10 -23.3 68 68 N 5 7 30.74 1041 10 16 0.00 0.00
7:15 am 07:15 Mostly Cloudy -1 -18.5 -9 -23 68 68 N 7 11 30.74 1041 10 16 0.00 0.00
7:35 am 07:35 Mostly Cloudy -1 -18.5 -9 -23 68 68 N 6 9 30.75 1041 10 16 0.00 0.00
7:55 am 07:55 Partly Cloudy -1 -18.5 -9 -23 68 68 NNE 5 7 30.76 1042 10 16 0.00 0.00
8:15 am 08:15 Sunny -1 -18.2 -9 -22.6 69 69 Calm 30.76 1042 10 16 0.00 0.00
8:35 am 08:35 Sunny 1 -17.5 -9 -22.5 65 65 N 5 7 30.75 1041 10 16 0.00 0.00
8:55 am 08:55 Sunny 2 -16.9 -8 -22.4 63 63 N 5 7 30.75 1041 10 16 0.00 0.00
9:15 am 09:15 Sunny 3 -16.1 -8 -22.2 60 60 NNE 7 11 30.74 1041 10 16 0.00 0.00
9:35 am 09:35 Sunny 4 -15.5 -8 -22.2 57 57 ENE 3 6 30.74 1041 10 16 0.00 0.00
9:55 am 09:55 Sunny 4 -15.3 -9 -23 52 52 Calm 30.74 1041 10 16 0.00 0.00
10:15 am 10:15 Sunny 6 -14.6 -9 -22.7 50 50 Calm 30.74 1041 10 16 0.00 0.00
10:35 am 10:35 Sunny 7 -14 -10 -23.4 45 45 NNE 3 6 30.73 1041 10 16 0.00 0.00
10:55 am 10:55 Sunny 8 -13.4 -11 -23.8 42 42 E 5 7 30.71 1040 10 16 0.00 0.00
11:15 am 11:15 Sunny 8 -13.1 -13 -25 36 36 NNE 3 6 30.71 1040 10 16 0.00 0.00
11:35 am 11:35 Sunny 10 -12 -12 -24.5 35 35 NE 3 6 30.69 1039 10 16 0.00 0.00
11:55 am 11:55 Sunny 11 -11.7 -12 -24.7 33 33 E 3 6 30.68 1039 10 16 0.00 0.00
12:15 pm 12:15 Sunny 12 -11.1 -12 -24.4 33 33 Calm 30.66 1038 10 16 0.00 0.00
12:35 pm 12:35 Sunny 13 -10.4 -11 -23.8 33 33 Calm 30.65 1038 10 16 0.00 0.00
12:55 pm 12:55 Sunny 14 -10.2 -11 -23.9 32 32 Calm 30.63 1037 10 16 0.00 0.00
1:15 pm 13:15 Sunny 15 -9.4 -10 -23.4 31 31 Calm 30.61 1037 10 16 0.00 0.00
1:35 pm 13:35 Sunny 15 -9.2 -10 -23.5 31 31 Calm 30.59 1036 10 16 0.00 0.00
1:55 pm 13:55 Sunny 17 -8.3 -10 -23.1 29 29 Calm 30.58 1036 10 16 0.00 0.00
2:15 pm 14:15 Sunny 18 -7.8 -9 -22.9 29 29 Calm 30.56 1035 10 16 0.00 0.00
2:35 pm 14:35 Sunny 18 -7.6 -9 -22.5 29 29 Calm 30.56 1035 10 16 0.00 0.00
2:55 pm 14:55 Sunny 19 -7.2 -8 -22.2 29 29 SSW 3 6 30.55 1034 10 16 0.00 0.00
3:15 pm 15:15 Sunny 20 -6.8 -8 -22 29 29 Calm 30.54 1034 10 16 0.00 0.00
3:35 pm 15:35 Sunny 20 -6.4 -7 -21.5 29 29 Calm 30.54 1034 10 16 0.00 0.00
3:55 pm 15:55 Sunny 21 -6 -7 -21.6 28 28 Calm 30.53 1034 10 16 0.00 0.00
4:15 pm 16:15 Sunny 21 -6 -6 -21.1 29 29 SW 3 6 30.54 1034 10 16 0.00 0.00
4:35 pm 16:35 Sunny 22 -5.6 -6 -21.1 29 29 SSW 5 7 30.53 1034 10 16 0.00 0.00
4:55 pm 16:55 Sunny 22 -5.7 -6 -21 29 29 SW 5 7 30.53 1034 10 16 0.00 0.00
5:15 pm 17:15 Sunny 21 -6 -6 -21.3 29 29 SSW 6 9 30.53 1034 10 16 0.00 0.00
5:35 pm 17:35 Sunny 20 -6.4 -7 -21.5 29 29 SW 5 7 30.54 1034 10 16 0.00 0.00
5:55 pm 17:55 Sunny 19 -7.4 -7 -21.7 31 31 SSW 6 9 30.54 1034 10 16 0.00 0.00
6:15 pm 18:15 Clear 17 -8.1 -8 -22 32 32 SSW 3 6 30.55 1034 10 16 0.00 0.00
6:35 pm 18:35 Clear 17 -8.5 -8 -22 33 33 SSW 5 7 30.55 1035 10 16 0.00 0.00
6:55 pm 18:55 Clear 15 -9.2 -8 -22.1 35 35 SSW 6 9 30.56 1035 10 16 0.00 0.00
7:15 pm 19:15 Clear 15 -9.7 -8 -22 36 36 SSW 3 6 30.56 1035 10 16 0.00 0.00
7:35 pm 19:35 Clear 14 -10.2 -8 -22.1 37 37 SSW 5 7 30.57 1035 10 16 0.00 0.00
7:55 pm 19:55 Clear 15 -9.7 -7 -21.5 38 38 S 9 15 30.56 1035 10 16 0.00 0.00
8:15 pm 20:15 Clear 13 -10.3 -6 -21.2 41 41 SSW 9 15 30.57 1035 10 16 0.00 0.00
8:35 pm 20:35 Clear 12 -11 -6 -21.1 43 43 SSW 6 9 30.58 1035 10 16 0.00 0.00
8:55 pm 20:55 Clear 12 -11 -6 -21.1 43 43 S 8 13 30.58 1035 10 16 0.00 0.00
9:15 pm 21:15 Clear 12 -11 -6 -21 44 44 SSW 7 11 30.58 1035 10 16 0.00 0.00
9:35 pm 21:35 Clear 12 -11 -6 -21.2 43 43 SW 6 9 30.59 1036 10 16 0.00 0.00
9:55 pm 21:55 Clear 12 -11.2 -6 -21.3 43 43 SW 7 11 30.60 1036 10 16 0.00 0.00
10:15 pm 22:15 Clear 12 -11 -5 -20.7 45 45 SSW 9 15 30.59 1036 10 16 0.00 0.00
10:35 pm 22:35 Clear 11 -11.5 -5 -20.4 48 48 SW 8 13 30.59 1036 10 16 0.00 0.00
10:55 pm 22:55 Clear 11 -11.5 -4 -19.8 51 51 SW 8 13 30.59 1036 10 16 0.00 0.00
11:15 pm 23:15 Clear 11 -11.6 -3 -19.5 52 52 SW 8 13 30.59 1036 10 16 0.00 0.00
11:35 pm 23:35 Clear 11 -11.6 -2 -19.1 54 54 SW 10 17 30.58 1036 10 16 0.00 0.00
11:55 pm 23:55 Clear 10 -12 -2 -19 56 56 SW 9 15 30.59 1036 10 16 0.00 0.00

Powered by AerisWeather